Location: Willeford
(37.6562°N, 88.8517°W)
Time: 23:41:01
(UTC+00:00)

Daily predictions for brighter satellites

Satellite Brightness Start Highest point End
(mag) Time Altitude Azimuth Time Altitude Azimuth Time Altitude Azimuth
Cosmos 405 3.2 12:03:40 10° NNW 12:07:05 47° W 12:10:27 10° S
COSMO-SKYMED 1 3.8 12:04:56 10° SSW 12:08:22 23° W 12:11:37 11° NW
Cosmos 2278 Rocket 3.2 12:04:28 10° S 12:09:56 51° ESE 12:15:25 10° NNE
BREEZE-M DEB 4.5 12:08:00 13° WNW 12:11:42 30° SW 12:15:19 10° SSE
Meteor 2-4 Rocket 4.1 12:07:15 10° NNW 12:12:12 38° W 12:17:05 10° SSW
Cosmos 1733 Rocket 4.1 12:15:15 10° SW 12:18:43 23° WNW 12:22:13 10° NNW
SL-24 R/B 4.2 12:15:06 10° S 12:19:22 53° W 12:23:30 10° NNW
GPS 2-04 Rocket1 3.0 12:24:32 10° W 12:28:24 66° S 12:32:27 10° E
Cosmos 1833 Rocket 4.2 12:26:32 10° N 12:31:40 35° ENE 12:36:46 10° SE
SMAP 3.1 12:32:14 10° N 12:36:49 59° WNW 12:41:23 10° SSW
BREEZE-M DEB (TANK) 4.4 22:46:20 10° W 22:50:43 60° NNW 23:08:41 10° ENE
SL-16 R/B 2.3 22:57:30 10° SSW 23:03:11 88° ESE 23:08:55 10° NNE
Cosmos 407 Rocket 3.5 22:59:16 10° S 23:04:26 73° ESE 23:09:41 10° NNE
Nadezhda 4 Rocket 4.5 22:59:11 10° SSW 23:05:28 69° W 23:11:45 10° N
Cosmos 1782 Rocket 4.2 23:01:38 10° NNE 23:05:36 34° ENE 23:09:33 10° SE
AQUARIUS 4.5 23:02:31 10° SE 23:06:46 44° ENE 23:11:03 10° N
Okean 1 3.9 23:04:48 10° SSE 23:08:27 36° E 23:12:08 10° NNE
Cosmos 2237 Rocket 3.9 23:05:06 10° WSW 23:10:04 30° WNW 23:15:03 10° N
Cosmos 1703 Rocket 3.6 23:07:46 10° S 23:12:13 80° E 23:16:43 10° N
USA 267 3.9 23:07:24 10° E 23:13:11 35° NNE 23:18:58 10° NNW
Cosmos 1943 Rocket 3.2 23:11:58 10° N 23:16:21 23° NE 23:20:41 10° ESE
Feng Yun 1-1 Rocket 4.1 23:13:32 10° SSE 23:18:52 69° ENE 23:24:15 10° N
Lacrosse 5 2.3 23:15:27 10° SSW 23:20:18 47° SE 23:25:02 11° NE
H-2A R/B 2.5 23:19:33 10° SSE 23:23:12 70° ENE 23:26:52 10° N
Okean 2 Rocket 4.1 23:20:17 10° NNE 23:23:58 24° ENE 23:27:39 10° SE
Abrixas rocket 3.0 23:21:16 10° W 23:24:07 38° NNW 23:26:42 12° NE
Cosmos 1441 Rocket 3.0 23:21:11 10° N 23:24:57 79° E 23:28:40 10° SSE
Cosmos 2026 Rocket 3.9 23:20:21 10° S 23:26:22 78° E 23:32:26 10° N
Cosmos 2221 Rocket 4.1 23:22:16 10° SSE 23:26:22 37° E 23:30:27 10° NNE
Genesis I 4.0 23:25:59 10° NW 23:29:45 54° WSW 23:33:27 10° SSE
Sich 1 Rocket 3.7 23:27:07 10° N 23:31:24 50° E 23:35:39 10° SSE
YAOGAN 6 3.5 23:29:30 10° SE 23:32:28 25° ENE 23:35:28 10° NNE
GPS 2-05 Rocket1 3.3 23:30:55 10° WSW 23:33:28 36° SSE 23:35:23 15° ESE
CZ-4C R/B 2.5 23:29:33 10° S 23:33:59 38° ESE 23:38:13 14° NE
Cosmos 1666 3.8 23:31:24 10° NNW 23:35:01 47° W 23:38:35 10° SSW
CZ-4 R/B 2.4 23:32:40 10° ESE 23:35:41 22° ENE 23:38:41 10° NNE
Okean 1-7 3.5 23:31:54 10° SSW 23:36:12 64° W 23:40:33 10° N
NOAA 12 4.1 23:31:45 10° SSE 23:36:58 64° ENE 23:42:12 10° N
Meteor 2-4 Rocket 4.4 23:31:44 10° SSE 23:36:58 35° E 23:42:07 10° NNE
Okean O Rocket 4.2 23:33:35 10° SSW 23:37:04 24° W 23:40:35 10° NW
SMAP 3.3 23:33:08 10° S 23:37:46 74° WSW 23:42:26 10° NNW
Cosmos 1515 4.3 23:35:18 10° SSE 23:38:43 34° E 23:41:52 12° NNE
STARLINK-38 4.5 23:37:27 10° SSW 23:41:04 33° SE 23:43:13 19° E
STARLINK-65 4.4 23:39:02 10° SSW 23:42:41 34° SE 23:44:46 20° E
Delta 2 Rocket 4.0 23:39:38 10° W 23:44:59 71° S 23:48:38 17° E
STARLINK-48 4.1 23:41:56 10° WSW 23:45:43 51° NW 23:48:30 17° NE
STARLINK-69 4.2 23:43:56 10° SSW 23:47:41 39° SE 23:49:39 23° ENE
Gbstr 26 Del rocket 4.1 23:40:28 10° SW 23:47:59 78° SE 23:52:46 19° NE
STARLINK-66 4.2 23:45:32 10° SSW 23:49:18 40° SE 23:51:10 24° ENE
BREEZE-M R/B 4.1 23:46:21 10° NW 23:49:50 20° N 23:50:43 18° NNE
Cosmos 1975 2.8 23:46:03 10° N 23:50:00 55° E 23:53:56 10° SSE
CZ-3B R/B 3.3 23:48:00 10° S 23:50:28 15° SSE 23:53:40 10° ESE
STARLINK-70 4.0 23:50:23 10° SSW 23:54:13 45° SE 23:55:56 27° ENE
Meteor 1-19 Rocket 4.1 23:48:49 10° S 23:54:18 79° E 23:59:45 10° NNE
Cosmos 1300 Rocket 4.0 23:50:39 10° N 23:54:38 36° ENE 23:58:36 10° SE
YAOGAN 1 3.2 23:51:46 10° SE 23:55:36 32° ENE 23:59:26 10° N
STARLINK-68 3.9 23:52:05 10° SSW 23:55:58 49° SE 23:57:40 29° ENE
